Home > Time Zones > World Clock > Weather > Iran > Ahvaz > Past weeks

Flag for Iran Weather past 2 weeks in Ahvaz, Iran

Now
109 °F

Clear.


Feels Like: 132 °F
Forecast: 89 / 117 °F
Wind: 5 mph from South

Location: Ahwaz

Current Time: Jul 29, 2015 at 12:24:22 PM

Latest Report: Jul 29, 2015 at 12:00 PM


Visibility: 5 mi

Pressure: 29.42 "Hg

Humidity: 38%

Dew point: 79 °F

Location of AhvazLocation

Historic Weather in Ahvaz — Graph

°F

Ahvaz temperature yesterday

Maximum temperature yesterday: 117 °F (at 2:00 PM)
Minimum temperature yesterday: 90 °F (at 5:30 AM)
Average temperature yesterday: 104 °F

Past Weeks' High & Low Weather Summary

 TemperatureHumidityPressure
High122 °F (Jul 16, 3:55 PM)71% (Jul 28, 7:30 AM)29.53 "Hg (Jul 28, 7:30 AM)
Low84 °F (Jul 19, 7:30 AM)9% (Jul 17, 3:30 PM)29.30 "Hg (Jul 19, 4:30 PM)
Average105 °F26%29.41 "Hg
* Reported Jul 14 10:30 AM — Jul 29 11:00 AM, Ahvaz, Weather by CustomWeather, © 2015

Note: Actual official high and low records may vary slightly from our data, if they occured in-between our weather recording intervals... More about our weather records

Advertising

Ahvaz weather history for previous 24 hours

 ConditionsComfort  
Time TempWeatherWind HumidityBarometerVisibility
11:00 AM
Wed, Jul 29
104 °FClear.7 mph43%29.42 "Hg4 mi
10:30 AM100 °FClear.5 mph50%29.42 "Hg4 mi
9:30 AM97 °FClear.7 mph56%29.42 "Hg4 mi
9:00 AM95 °FClear.7 mph53%29.42 "Hg4 mi
8:30 AM93 °FClear.7 mph59%29.42 "Hg4 mi
7:30 AM88 °FClear.5 mph59%29.42 "Hg4 mi
6:30 AM90 °FHaze.7 mph59%29.42 "Hg2 mi
5:30 AM88 °FClear.5 mph62%29.42 "Hg5 mi
4:30 AM90 °FClear.5 mph55%29.39 "Hg5 mi
3:30 AM88 °FClear.No wind49%29.39 "Hg10 mi
2:30 AM90 °FClear.No wind29%29.39 "Hg10 mi
1:30 AM97 °FClear.No wind23%29.39 "Hg10 mi
1:00 AM100 °FClear.2 mph29%29.42 "Hg10 mi
12:30 AM100 °FClear.5 mph29%29.42 "Hg10 mi
12:00 AM100 °FClear.5 mph29%29.42 "Hg10 mi
11:30 PM
Tue, Jul 28
100 °FClear.5 mph29%29.42 "Hg10 mi
10:30 PM99 °FClear.2 mph44%29.42 "Hg4 mi
10:00 PM99 °FClear.No wind47%29.39 "Hg4 mi
9:30 PM99 °FClear.No wind47%29.39 "Hg4 mi
9:00 PM100 °FClear.No wind47%29.39 "Hg4 mi
8:30 PM106 °FClear.2 mph40%29.39 "Hg4 mi
8:00 PM108 °FClear.2 mph28%29.39 "Hg4 mi
7:30 PM113 °FClear.2 mph21%29.39 "Hg4 mi
7:00 PM113 °FClear.2 mph20%29.39 "Hg4 mi
6:30 PM115 °FClear.5 mph20%29.39 "Hg4 mi
6:00 PM115 °FPassing clouds.5 mph20%29.39 "Hg4 mi
5:30 PM115 °FPassing clouds.5 mph19%29.39 "Hg4 mi
5:00 PM115 °FClear.5 mph20%29.39 "Hg4 mi
4:30 PM115 °FClear.5 mph20%29.39 "Hg4 mi
4:00 PM117 °FClear.5 mph18%29.39 "Hg4 mi
3:30 PM115 °FClear.7 mph26%29.42 "Hg4 mi
3:00 PM117 °FClear.No wind24%29.42 "Hg4 mi
2:30 PM117 °FClear.5 mph23%29.42 "Hg4 mi
2:00 PM117 °FClear.No wind24%29.42 "Hg4 mi
1:30 PM115 °FClear.No wind26%29.45 "Hg4 mi
1:00 PM111 °FClear.No wind32%29.45 "Hg5 mi
12:30 PM106 °FClear.No wind40%29.45 "Hg5 mi
Weather by CustomWeather, © 2015

See weather overviewHow to use our weather pages